[[{"header":{"parameterUnit":"m.s-1","parameterCategory":1,"la1":30.2991,"la2":30.254,"lo1":-89.0895,"lo2":-89.0444,"dy":0.0017,"dx":0.0017,"nx":28,"ny":28,"refTime":"2023-10-02T09:00:00:Z","depth":0,"parameterNumber":2,"parameterNumberName":"U-component_of_WINDS"},"data":[0,0,0,0,0,0,0,0,0,0,0,0,0,0,0,0,0,0,0,0,0,0,0,0,0,0,0,0,0,0,0,0,0,0,0,0,0,0,0,0,0,0,0,0,0,0,0,0,0,0,0,0,0,0,0,0,0,0,-6.693,-6.6931,0,-6.7008,-6.7009,-6.7009,-6.6892,-6.6887,-6.6883,-6.6879,-6.696,-6.6966,-6.6972,0,0,0,0,0,0,0,0,0,0,0,0,0,-6.6681,-6.6686,-6.693,-6.6931,-6.6932,-6.7008,-6.7009,-6.701,-6.6892,-6.6887,-6.6882,-6.6878,-6.6958,-6.6965,-6.6973,0,0,0,0,0,0,0,0,0,0,0,0,0,-6.6777,-6.6688,-6.693,-6.6882,-6.6879,-6.7007,-6.7009,-6.701,-6.6893,-6.6887,-6.6881,-6.6875,-6.6956,-6.6965,-6.6974,-6.7152,0,0,-6.7001,-6.7005,0,0,0,0,0,0,0,0,-6.6772,-6.6786,-6.6888,-6.6886,-6.6882,-6.6934,-6.695,-6.7058,-6.6895,-6.6888,-6.6879,-6.6872,-6.6957,-6.6965,-6.6993,-6.7156,-6.716,-6.7002,-6.7007,-6.7011,-6.7014,0,0,0,0,0,0,0,-6.6765,-6.6782,-6.696,-6.689,-6.6886,-6.6858,-6.6865,-6.697,-6.6956,-6.6888,-6.688,-6.689,-6.6954,-6.6985,-6.6994,-6.7161,-6.7002,-6.701,-6.7015,-6.7019,-6.7477,-6.7483,0,0,0,0,0,0,-6.6764,-6.6778,-6.6958,-6.6963,-6.6811,-6.6867,-6.6875,-6.6923,-6.6954,-6.6953,-6.6896,-6.6885,-6.6973,-6.6984,-6.6997,-6.721,-6.7011,-6.7019,-6.7025,-6.747,-6.7478,-6.7486,0,0,0,0,0,0,-6.6759,-6.6781,-6.6955,-6.6868,-6.6888,-6.6878,-6.6933,-6.6928,-6.6959,-6.696,-6.6957,-6.693,-6.6968,-6.6984,-6.7115,-6.7211,-6.7024,-6.7032,-6.7462,-6.7473,-6.7482,-6.7636,0,0,0,0,0,0,-6.6753,-6.678,-6.6848,-6.687,-6.6893,-6.7072,-6.6939,-6.6934,-6.6975,-6.6961,-6.6992,-6.6991,-6.6965,-6.7102,-6.7124,-6.722,-6.7039,-6.7454,-6.7467,-6.7479,-6.7623,-6.7651,-6.7674,0,0,0,0,0,-6.6744,-6.6888,-6.6852,-6.6874,-6.6977,-6.7077,-6.709,-6.7057,-6.6983,-6.7051,-6.7052,-6.699,-6.7197,-6.7117,-6.714,-6.724,-6.7447,-6.7463,-6.7478,-6.7611,-6.7645,-6.7674,0,0,0,0,0,0,-6.6876,-6.689,-6.685,-6.7005,-6.7041,-6.7057,-6.7142,-6.7094,-6.7152,-6.7137,-6.7093,-6.7101,-6.7242,-6.7254,-6.7164,-6.7416,-6.731,-6.7331,-6.7403,-6.7435,-6.7461,-6.7455,-6.7046,0,0,0,0,0,-6.6923,-6.7003,-6.7011,-6.7147,-6.7167,-6.7152,-6.7195,-6.7166,-6.7202,-6.7216,-6.7226,-6.7264,-6.7338,-6.7387,-6.7454,-6.7624,-6.763,-6.7704,-6.773,-6.7751,-6.777,-6.7863,-6.7896,-6.7536,-6.7536,-6.7536,0,0,-6.7021,-6.7039,-6.7092,-6.7174,-6.7199,-6.7284,-6.7166,-6.726,-6.7323,-6.723,-6.7355,-6.7365,-6.7404,-6.7555,-6.7623,-6.757,-6.7871,-6.7771,-6.7788,-6.7795,-6.7882,-6.7916,-6.7946,-6.7546,-6.7544,-6.7543,0,0,-6.7244,-6.7264,-6.7381,-6.7408,-6.7447,-6.7437,-6.7465,-6.7489,-6.7492,-6.7616,-6.755,-6.7624,-6.7751,-6.7783,-6.7815,-6.8052,-6.7998,-6.8075,-6.8211,-6.8302,-6.833,-6.8355,-6.8441,-6.8473,-6.8094,-6.8094,-6.8095,0,-6.7361,-6.7486,-6.7447,-6.7547,-6.7586,-6.7507,-6.7625,-6.7654,-6.7713,-6.7742,-6.7682,-6.7841,-6.7862,-6.8021,-6.8079,-6.8107,-6.8139,-6.8072,-6.8329,-6.8354,-6.8376,-6.8458,-6.8491,-6.8103,-6.8102,-6.8101,-6.8101,0,-6.7629,-6.7716,-6.7806,-6.7866,-6.7915,-6.8024,-6.8002,-6.8057,-6.8025,-6.8021,-6.815,-6.8172,-6.8244,-6.8279,-6.8248,-6.8435,-6.8401,-6.8336,-6.8228,-6.8421,-6.8497,-6.8528,-6.8117,-6.8113,-6.8111,-6.8108,0,0,-6.7935,-6.7974,-6.8008,-6.8035,-6.8073,-6.814,-6.8246,-6.8317,-6.8365,-6.8409,-6.8498,-6.8608,-6.8549,-6.8586,-6.8558,-6.8638,-6.8827,-6.8563,-6.8563,-6.8613,-6.9036,-6.9086,-6.9123,-6.8791,-6.8797,-6.8801,-6.9033,0,-6.8158,-6.8341,-6.831,-6.8488,-6.857,-6.8497,-6.8589,-6.8624,-6.8623,-6.8693,-6.8692,-6.8772,-6.8687,-6.8709,-6.8785,-6.8788,-6.8911,-6.877,-6.8874,-6.8879,-6.8868,-6.9162,-6.9214,-6.9432,-6.9063,-6.9068,-6.9071,0,-6.8442,-6.8498,-6.8684,-6.8711,-6.8744,-6.8828,-6.8891,-6.8959,-6.8997,-6.8991,-6.9034,-6.8992,-6.9099,-6.899,-6.9138,-6.9043,-6.9084,-6.9092,-6.91,-6.9109,-6.8987,-6.9181,-6.9501,-6.9534,-6.9118,-6.9114,-6.9111,0,-6.865,-6.8771,-6.8898,-6.8924,-6.8958,-6.9019,-6.9037,-6.9068,-6.9113,-6.9169,-6.9198,-6.9265,-6.9302,-6.9356,-6.9334,-6.9256,-6.9488,-6.9376,-6.9487,-6.9488,-6.9539,-6.9537,-6.9872,-6.9564,-6.9564,-6.9563,-6.9562,0,-6.8902,-6.902,-6.8992,-6.9071,-6.92,-6.9165,-6.9294,-6.9303,-6.9332,-6.9412,-6.9353,-6.9429,-6.9395,-6.947,-6.9453,-6.958,-6.9596,-6.9596,-6.959,-6.9602,-6.9602,-6.9629,-6.9613,-6.9572,-6.957,-6.9568,-6.9567,0,-6.9156,-6.9142,-6.9276,-6.9299,-6.9307,-6.9402,-6.9421,-6.9496,-6.9491,-6.9593,-6.9615,-6.9609,-6.9694,-6.9677,-6.977,-6.9759,-6.9919,-6.9894,-6.9906,-6.9901,-7.0013,-7.0004,-7.0378,-7.0426,-7.0087,-7.009,-7.0093,0,-6.9318,-6.9407,-6.9439,-6.9489,-6.9511,-6.9591,-6.9637,-6.9606,-6.9656,-6.9707,-6.9776,-6.9856,-6.9918,-7.0057,-7.0062,-7.0134,-7.0111,-7.0237,-7.0121,-7.0131,-7.0115,-7.011,-7.012,-7.026,-7.0264,-7.0267,-7.027,0,-6.9609,-6.9599,-6.9667,-6.9734,-6.9791,-6.9842,-6.9888,-6.9932,-6.9904,-6.9964,-7.0051,-7.0099,-7.0195,-7.0276,-7.0343,-7.0361,-7.0313,-7.0307,-7.0336,-7.035,-7.0354,-7.0355,-6.997,-7.0298,-7.0295,-7.0293,-7.0292,-7.0291,-6.9823,-6.9899,-6.9935,-7.0013,-7.0045,-7.0089,-7.0161,-7.0166,-7.0237,-7.0313,-7.029,-7.0389,-7.0427,-7.0512,-7.0539,-7.0616,-7.0569,-7.0612,-7.0623,-7.0635,-7.0649,-7.0341,-7.0628,-7.0628,-7.0627,-7.0626,-7.0625,0,-7.0112,-7.0131,-7.0204,-7.0271,-7.0333,-7.0281,-7.033,-7.0386,-7.0474,-7.0513,-7.0576,-7.0676,-7.0754,-7.0766,-7.084,-7.0901,-7.088,-7.0922,-7.0917,-7.0923,-7.0686,-7.0654,-7.0937,-7.0937,-7.0937,-7.0937,-7.0937,-7.0937,-7.027,-7.0397,-7.0391,-7.0533,-7.0551,-7.0648,-7.068,-7.0722,-7.0753,-7.0868,-7.0933,-7.094,-7.0969,-7.1045,-7.1116,-7.1117,-7.1148,-7.1198,-7.1192,-7.097,-7.0939,-7.091,-7.0879,-7.1205,-7.1205,-7.1422,-7.1424,-7.1425]},{"header":{"parameterUnit":"m.s-1","parameterCategory":1,"la1":30.2991,"la2":30.254,"lo1":-89.0895,"lo2":-89.0444,"dy":0.0017,"dx":0.0017,"nx":28,"ny":28,"refTime":"2023-10-02T09:00:00:Z","depth":0,"parameterNumber":3,"parameterNumberName":"V-component_of_WINDS"},"data":[0,0,0,0,0,0,0,0,0,0,0,0,0,0,0,0,0,0,0,0,0,0,0,0,0,0,0,0,0,0,0,0,0,0,0,0,0,0,0,0,0,0,0,0,0,0,0,0,0,0,0,0,0,0,0,0,0,0,-2.288,-2.288,0,-2.2853,-2.2853,-2.2852,-2.2793,-2.2792,-2.2791,-2.279,-2.2763,-2.2764,-2.2764,0,0,0,0,0,0,0,0,0,0,0,0,0,-2.288,-2.288,-2.288,-2.288,-2.2879,-2.2853,-2.2853,-2.2852,-2.2794,-2.2792,-2.2791,-2.2789,-2.2763,-2.2764,-2.2764,0,0,0,0,0,0,0,0,0,0,0,0,0,-2.2869,-2.288,-2.288,-2.2847,-2.2843,-2.2853,-2.2853,-2.2852,-2.2794,-2.2792,-2.279,-2.2789,-2.2763,-2.2764,-2.2764,-2.2804,0,0,-2.2766,-2.2766,0,0,0,0,0,0,0,0,-2.287,-2.2869,-2.2852,-2.2849,-2.2845,-2.2825,-2.2843,-2.2836,-2.2794,-2.2813,-2.279,-2.2788,-2.2785,-2.2784,-2.2783,-2.2803,-2.2802,-2.2766,-2.2767,-2.2767,-2.2767,0,0,0,0,0,0,0,-2.2871,-2.287,-2.2869,-2.2852,-2.2848,-2.2833,-2.2829,-2.2841,-2.281,-2.2811,-2.2807,-2.2804,-2.2783,-2.2782,-2.2782,-2.2802,-2.2766,-2.2767,-2.2767,-2.2767,-2.2852,-2.2854,0,0,0,0,0,0,-2.2876,-2.2871,-2.287,-2.2868,-2.2853,-2.2834,-2.283,-2.2833,-2.2809,-2.2804,-2.2806,-2.2802,-2.2782,-2.2781,-2.2781,-2.2825,-2.2767,-2.2767,-2.2768,-2.285,-2.2852,-2.2854,0,0,0,0,0,0,-2.2876,-2.2877,-2.2871,-2.2868,-2.2867,-2.2836,-2.284,-2.2834,-2.2833,-2.2805,-2.2799,-2.2811,-2.2781,-2.278,-2.2798,-2.2824,-2.2768,-2.2768,-2.2848,-2.2851,-2.2853,-2.2916,0,0,0,0,0,0,-2.2877,-2.2877,-2.2892,-2.2869,-2.2867,-2.289,-2.2841,-2.2834,-2.2834,-2.2828,-2.2809,-2.2804,-2.2779,-2.2798,-2.2799,-2.2824,-2.2769,-2.2846,-2.2849,-2.2852,-2.2912,-2.2921,-2.2929,0,0,0,0,0,-2.2877,-2.2911,-2.2893,-2.2894,-2.2885,-2.2892,-2.289,-2.2861,-2.2836,-2.2851,-2.2833,-2.2804,-2.2821,-2.28,-2.2801,-2.2826,-2.2844,-2.2848,-2.2852,-2.2908,-2.2919,-2.2928,0,0,0,0,0,0,-2.2939,-2.2908,-2.2888,-2.2916,-2.2907,-2.2882,-2.29,-2.2874,-2.2872,-2.2867,-2.2831,-2.2827,-2.2851,-2.284,-2.2818,-2.2863,-2.2827,-2.2832,-2.287,-2.288,-2.2888,-2.289,-2.2769,0,0,0,0,0,-2.2956,-2.2963,-2.2936,-2.2963,-2.296,-2.2931,-2.2932,-2.291,-2.29,-2.2896,-2.2879,-2.287,-2.2873,-2.2875,-2.2877,-2.2909,-2.2904,-2.2927,-2.2935,-2.2942,-2.2947,-2.2963,-2.2973,-2.2868,-2.2868,-2.2868,0,0,-2.2991,-2.2975,-2.2982,-2.2975,-2.2966,-2.2974,-2.2928,-2.2939,-2.2945,-2.2897,-2.2914,-2.2901,-2.2888,-2.2914,-2.2925,-2.2906,-2.2974,-2.2948,-2.2954,-2.2954,-2.2968,-2.2978,-2.2987,-2.2871,-2.2871,-2.287,0,0,-2.306,-2.3049,-2.307,-2.3061,-2.3046,-2.3026,-2.3032,-2.301,-2.2999,-2.3015,-2.298,-2.2986,-2.2992,-2.2984,-2.2981,-2.3044,-2.3017,-2.3046,-2.309,-2.3106,-2.3114,-2.3121,-2.3144,-2.3152,-2.305,-2.305,-2.305,0,-2.3106,-2.3117,-2.3084,-2.3097,-2.3095,-2.3051,-2.3073,-2.3065,-2.3053,-2.3052,-2.3031,-2.3037,-2.3025,-2.3048,-2.3063,-2.3062,-2.3067,-2.3048,-2.3115,-2.3122,-2.3128,-2.3149,-2.3158,-2.3054,-2.3053,-2.3053,-2.3053,0,-2.3174,-2.3182,-2.3201,-2.3189,-2.3188,-2.3206,-2.3175,-2.3179,-2.3157,-2.3139,-2.3155,-2.3139,-2.3136,-2.3139,-2.3118,-2.3159,-2.3148,-2.3122,-2.3085,-2.3142,-2.3162,-2.3169,-2.3059,-2.3058,-2.3057,-2.3056,0,0,-2.3283,-2.3251,-2.3258,-2.3252,-2.3232,-2.3238,-2.3252,-2.3248,-2.3252,-2.3244,-2.3255,-2.326,-2.3235,-2.3232,-2.3209,-2.3223,-2.3274,-2.3195,-2.3194,-2.321,-2.3317,-2.3338,-2.3348,-2.3255,-2.3257,-2.3258,-2.3319,0,-2.3347,-2.3371,-2.3341,-2.337,-2.3377,-2.3335,-2.3347,-2.3336,-2.332,-2.3323,-2.3304,-2.3308,-2.3275,-2.3272,-2.3284,-2.3265,-2.3295,-2.326,-2.3266,-2.3266,-2.3271,-2.3358,-2.338,-2.3438,-2.3326,-2.3327,-2.3328,0,-2.3426,-2.3421,-2.3451,-2.3428,-2.343,-2.3442,-2.3435,-2.3439,-2.3425,-2.3411,-2.3407,-2.3379,-2.3391,-2.3355,-2.3371,-2.3348,-2.3348,-2.3339,-2.3341,-2.3341,-2.3301,-2.3361,-2.3456,-2.3465,-2.334,-2.3339,-2.3338,0,-2.3503,-2.3503,-2.3521,-2.3517,-2.349,-2.3499,-2.3489,-2.3473,-2.3472,-2.3466,-2.3465,-2.3461,-2.3459,-2.3457,-2.3428,-2.3405,-2.3448,-2.3409,-2.3437,-2.3438,-2.3449,-2.3449,-2.3546,-2.3449,-2.3448,-2.3448,-2.3448,0,-2.3578,-2.3598,-2.3555,-2.3566,-2.3587,-2.3552,-2.3574,-2.3559,-2.3545,-2.3552,-2.3515,-2.3523,-2.3484,-2.3488,-2.3466,-2.3482,-2.3481,-2.3471,-2.3465,-2.3475,-2.3476,-2.3475,-2.3471,-2.3451,-2.345,-2.345,-2.3449,0,-2.3668,-2.364,-2.3656,-2.3629,-2.3623,-2.3639,-2.3616,-2.3625,-2.3605,-2.3615,-2.3615,-2.3584,-2.3586,-2.3557,-2.3553,-2.3538,-2.3565,-2.3551,-2.357,-2.3566,-2.3595,-2.3593,-2.3695,-2.3707,-2.3602,-2.3603,-2.3604,0,-2.3718,-2.3733,-2.3707,-2.3708,-2.37,-2.3703,-2.3702,-2.3667,-2.3667,-2.3652,-2.3663,-2.3661,-2.3658,-2.3663,-2.364,-2.3637,-2.3624,-2.3659,-2.3623,-2.3632,-2.3624,-2.3624,-2.3625,-2.3668,-2.3669,-2.367,-2.3671,0,-2.3811,-2.3796,-2.3795,-2.3789,-2.3788,-2.3782,-2.3774,-2.3777,-2.3739,-2.3741,-2.3742,-2.374,-2.3735,-2.3735,-2.3727,-2.3715,-2.3687,-2.3682,-2.3689,-2.3699,-2.3709,-2.3704,-2.3591,-2.3681,-2.368,-2.3679,-2.3678,-2.3678,-2.3882,-2.3893,-2.3876,-2.3876,-2.3866,-2.3858,-2.3865,-2.3845,-2.3845,-2.3839,-2.3818,-2.3823,-2.3807,-2.3793,-2.3784,-2.3787,-2.377,-2.3779,-2.3781,-2.3784,-2.379,-2.3708,-2.3786,-2.3785,-2.3785,-2.3785,-2.3785,0,-2.3973,-2.396,-2.396,-2.3949,-2.3949,-2.3921,-2.3909,-2.3911,-2.3915,-2.3903,-2.3901,-2.3901,-2.39,-2.3876,-2.3872,-2.3879,-2.3865,-2.3879,-2.3878,-2.3876,-2.3806,-2.3801,-2.3889,-2.3889,-2.3889,-2.3889,-2.3889,-2.3889,-2.402,-2.4036,-2.4019,-2.4029,-2.4015,-2.4019,-2.4015,-2.4007,-2.3997,-2.4,-2.3998,-2.3982,-2.3965,-2.3959,-2.3956,-2.3949,-2.3949,-2.3967,-2.3956,-2.3891,-2.3881,-2.3871,-2.3866,-2.3967,-2.3967,-2.4025,-2.4026,-2.4026]}]]